x

Tanner Bank - 121nm West Of San Diego, Ca (46047) Wave Buoy

7:50pm - Wed 16th Aug 2017 All times are PDT. -7 hours from GMT.

  • Sig Wave height 6.2ft
  • Swell Direction
  • Peak Period 16s
  • Average Period 8s
  • Wind
    16mph, 20mph gusts
  • Sea Temp 66°f
  • 空気 Temp 64°f
  • Sea Pressure 1014.3mb
  • Tanner Bank - 121nm West Of San Diego, Ca
  • Tanner Bank - 121nm West Of San Diego, Ca

More Historic Weather Station data

Upgrade to MSW Pro to gain access to the past 30 days of data for over 8000 Wavebouys and Weather Stations around the globe.

Join

Comparision Forecast

View Surf forecast
   
Wed 08/16 7:50pm 6ft 16s 8s 16 20 mph 1014.3mb 66f 64f
6:50pm 5.5ft 16s 7s 16 18 mph 1014.2mb 66f 64f
5:50pm 5ft 16s 7s 16 18 mph 1014.4mb 66f 64f
3:50pm 5.5ft 16s 8s 13 18 mph 1015mb 67f 63f
2:50pm 5.5ft 17s 8s 11 16 mph 1015.4mb 66f 64f
1:50pm 6ft 17s 8s 11 13 mph 1015.7mb 66f 63f
12:50pm 6ft 17s 8s 11 13 mph 1016.1mb 66f 63f
11:50am 5.5ft 17s 7s 9 11 mph 1016.6mb 66f 63f
10:50am 5.5ft 17s 7s 11 13 mph 1016.5mb 66f 63f
9:50am 5.5ft 16s 7s 9 11 mph 1016.3mb 66f 63f
8:50am 6ft 17s 7s 13 16 mph 1015.9mb 66f 63f
7:50am 5.5ft 17s 7s 9 16 mph 1015.5mb 66f 63f
6:50am 6ft 17s 7s 13 16 mph 1015.3mb 66f 63f
5:50am 6ft 17s 8s 11 18 mph 1014.7mb 66f 63f
4:50am 5.5ft 16s 7s 13 16 mph 1014.3mb 66f 63f
3:50am 5.5ft 17s 7s 13 18 mph 1014.1mb 66f 63f
2:50am 5ft 17s 7s 13 18 mph 1014mb 66f 63f
1:50am 6ft 17s 7s 13 16 mph 1014.2mb 66f 63f
12:50am 6ft 19s 7s 13 16 mph 1014.5mb 66f 63f
Tue 08/15 11:50pm 5.5ft 19s 7s 11 16 mph 1014.4mb 66f 63f
10:50pm 5.5ft 9s 6s 16 18 mph 1014.1mb 66f 63f
9:50pm 5.5ft 19s 7s 16 18 mph 1014mb 66f 63f
8:50pm 5.5ft 9s 7s 13 18 mph 1013.4mb 66f 63f
7:50pm 5ft 8s 6s 16 18 mph 1013.1mb 66f 63f
6:50pm 5ft 17s 6s 16 20 mph 1012.8mb 66f 63f
5:50pm 5.5ft 16s 6s 16 20 mph 1012.9mb 66f 64f
4:50pm 5.5ft 16s 7s 16 18 mph 1013.2mb 66f 64f
3:50pm 5ft 9s 6s 16 18 mph 1013.3mb 66f 64f
2:50pm 5ft 19s 6s 16 20 mph 1013.6mb 66f 63f
1:50pm 5ft 8s 6s 16 18 mph 1013.9mb 66f 63f
12:50pm 5ft 6s 6s 13 16 mph 1014.3mb 66f 63f
11:50am 5ft 7s 6s 13 16 mph 1014.4mb 66f 63f
10:50am 5ft 7s 6s 13 18 mph 1014.3mb 66f 63f
9:50am 5ft 7s 6s 13 16 mph 1013.9mb 66f 63f
8:50am 4.5ft 7s 6s 13 20 mph 1013.8mb 66f 62f
7:50am 5ft 6s 6s 16 18 mph 1013.4mb 66f 63f
6:50am 5ft 7s 6s 13 18 mph 1012.9mb 66f 63f
5:50am 4.5ft 7s 6s 16 18 mph 1012.4mb 66f 63f
4:50am 4.5ft 7s 6s 16 18 mph 1012.3mb 66f 63f
3:50am 5ft 7s 6s 13 18 mph 1012.4mb 66f 63f
2:50am 4.5ft 6s 5s 16 20 mph 1012.5mb 66f 63f
1:50am 4.5ft 7s 5s 16 20 mph 1012.6mb 66f 63f
12:50am 4.5ft 6s 5s 16 22 mph 1012.8mb 66f 62f
Mon 08/14 11:50pm 4.5ft 5s 6s 16 18 mph 1013.2mb 66f 62f
10:50pm 4.5ft 6s 5s 18 22 mph 1013mb 66f 62f
9:50pm 4.5ft 6s 5s 18 20 mph 1012.8mb 66f 63f
8:50pm 4.5ft 7s 5s 16 20 mph 1012.4mb 66f 63f
7:50pm 4.5ft 8s 5s 16 20 mph 1012.2mb 66f 63f
6:50pm 4.5ft 8s 5s 16 20 mph 1012mb 66f 63f
5:50pm 4.5ft 10s 5s 16 20 mph 1012.1mb 66f 63f
4:50pm 4.5ft 8s 5s 16 18 mph 1012.5mb 66f 63f
3:50pm 4.5ft 8s 5s 13 16 mph 1012.6mb 66f 63f
2:50pm 5ft 7s 5s 16 18 mph 1013mb 65f 62f
1:50pm 5ft 6s 5s 16 20 mph 1013.4mb 65f 63f
12:50pm 5ft 8s 6s 16 20 mph 1013.4mb 65f 62f
11:50am 5ft 8s 6s 13 18 mph 1013.9mb 65f 62f
10:50am 5ft 8s 6s 13 18 mph 1013.9mb 65f 62f
9:50am 5ft 8s 6s 13 16 mph 1014mb 64f 62f
8:50am 5.5ft 8s 6s 16 18 mph 1013.7mb 64f 62f
7:50am 5ft 7s 6s 16 18 mph 1013.3mb 64f 61f
6:50am 5ft 7s 6s 13 20 mph 1012.9mb 65f 61f
5:50am 5ft 8s 6s 16 18 mph 1012.6mb 65f 62f
4:50am 4.5ft 8s 6s 13 18 mph 1012.6mb 65f 61f
3:50am 5ft 8s 6s 13 18 mph 1012.9mb 64f 61f
2:50am 4.5ft 13s 6s 16 20 mph 1012.8mb 64f 62f
1:50am 5ft 8s 6s 13 18 mph 1013.3mb 64f 62f
12:50am 4.5ft 7s  -  13 16 mph 1013.5mb 64f 62f
Sun 08/13 11:50pm 4.5ft 8s 5s 13 18 mph 1013.6mb 64f 62f
10:50pm 5ft 8s 5s 13 18 mph 1013.9mb 64f 62f
9:50pm 4.5ft 8s 5s 13 16 mph 1013.6mb 64f 62f
8:50pm 4.5ft 8s 5s 18 25 mph 1012.7mb 64f 62f
7:50pm 4.5ft 8s 5s 20 25 mph 1012.3mb 64f 62f
6:50pm 4.5ft 8s 5s 20 25 mph 1012.3mb 65f 62f
5:50pm 4.5ft 8s 5s 18 22 mph 1012.8mb 65f 62f
4:50pm 4.5ft 8s 6s 16 20 mph 1012.8mb 65f 63f
3:50pm 4.5ft 8s 5s 13 18 mph 1013.2mb 65f 63f
2:50pm 5ft 7s 6s 13 16 mph 1013.7mb 64f 63f
1:50pm 5ft 7s 6s 13 16 mph 1014.2mb 64f 63f
12:50pm 5.5ft 7s 6s 11 13 mph 1014.7mb 64f 62f
11:50am 6ft 8s 6s 13 16 mph 1014.6mb 64f 62f
10:50am 5ft 7s 6s 18 20 mph 1014.6mb 64f 61f
9:50am 6ft 8s 6s 16 18 mph 1014.6mb 64f 61f
8:50am 5ft 8s 6s 13 18 mph 1014.4mb 64f 61f
7:50am 5.5ft 8s 6s 13 16 mph 1014.2mb 64f 61f
6:50am 5.5ft 8s 6s 13 20 mph 1013.7mb 64f 60f
5:50am 6ft 8s 6s 16 20 mph 1013.3mb 64f 61f
4:50am 5.5ft 8s 6s 16 20 mph 1012.8mb 64f 61f
3:50am 6ft 8s 6s 13 18 mph 1012.8mb 64f 61f